| time (UTC) | temp F | wind direction | speed MPH | gust MPH | rain 1hr in | rain 24hr in | rain mn in | humidity % | barometer mb |
| 20260503031803 | 60 | 245 | 4.0 | 9.0 | 0.00 | 0.00 | 0.00 | 89 | 1012.1 |
| 20260503030735 | 60 | 295 | 5.0 | 9.0 | 0.00 | 0.00 | 0.00 | 88 | 1011.9 |
| 20260503025701 | 60 | 280 | 4.0 | 11.0 | 0.00 | 0.00 | 0.00 | 88 | 1011.7 |
| 20260503024705 | 60 | 293 | 4.0 | 11.0 | 0.00 | 0.00 | 0.00 | 87 | 1011.5 |
| 20260503022543 | 61 | 211 | 4.0 | 9.0 | 0.00 | 0.00 | 0.00 | 85 | 1011.3 |
| 20260503021515 | 61 | 202 | 4.0 | 8.0 | 0.00 | 0.00 | 0.00 | 84 | 1011.1 |
| 20260503020530 | 62 | 244 | 5.0 | 9.0 | 0.00 | 0.00 | 0.00 | 84 | 1011.3 |
| 20260503015550 | 62 | 259 | 4.0 | 9.0 | 0.00 | 0.00 | 0.00 | 83 | 1011.2 |
| 20260503014536 | 63 | 279 | 6.0 | 9.0 | 0.00 | 0.00 | 0.00 | 81 | 1011.3 |
| 20260503013507 | 63 | 227 | 6.0 | 9.0 | 0.00 | 0.00 | 0.00 | 82 | 1011.3 |
| 20260503012530 | 63 | 200 | 6.0 | 9.0 | 0.00 | 0.00 | 0.00 | 80 | 1011.3 |
| 20260503011550 | 64 | 285 | 5.0 | 9.0 | 0.00 | 0.00 | 0.00 | 80 | 1011.2 |
| 20260503010602 | 64 | 236 | 5.0 | 8.0 | 0.00 | 0.00 | 0.00 | 80 | 1011.0 |
| 20260503004504 | 64 | 276 | 5.0 | 9.0 | 0.00 | 0.00 | 0.00 | 79 | 1011.1 |
| 20260503003452 | 65 | 257 | 4.0 | 8.0 | 0.00 | 0.00 | 0.00 | 78 | 1011.2 |
| 20260503002510 | 64 | 231 | 6.0 | 9.0 | 0.00 | 0.00 | 0.00 | 78 | 1011.1 |
| 20260503001533 | 64 | 219 | 7.0 | 11.0 | 0.00 | 0.00 | 0.00 | 78 | 1011.3 |
| 20260503000519 | 64 | 11 | 7.0 | 11.0 | 0.00 | 0.00 | 0.00 | 80 | 1011.4 |
| 20260502234417 | 63 | 231 | 6.0 | 11.0 | 0.00 | 0.00 | 0.00 | 81 | 1011.4 |
| 20260502232300 | 63 | 279 | 6.0 | 11.0 | 0.00 | 0.00 | 0.00 | 80 | 1011.6 |
| 20260502231304 | 63 | 281 | 6.0 | 10.0 | 0.00 | 0.00 | 0.00 | 80 | 1011.7 |
| 20260502225143 | 64 | 249 | 6.0 | 10.0 | 0.00 | 0.00 | 0.00 | 80 | 1011.9 |
| 20260502224117 | 64 | 212 | 8.0 | 13.0 | 0.00 | 0.00 | 0.00 | 78 | 1012.3 |
| 20260502223105 | 64 | 265 | 8.0 | 13.0 | 0.00 | 0.00 | 0.00 | 79 | 1012.5 |
| 20260502222126 | 64 | 224 | 8.0 | 12.0 | 0.00 | 0.00 | 0.00 | 80 | 1012.8 |
| 20260502221059 | 64 | 238 | 8.0 | 13.0 | 0.00 | 0.00 | 0.00 | 80 | 1012.9 |
| 20260502214920 | 64 | 245 | 8.0 | 14.0 | 0.00 | 0.00 | 0.00 | 80 | 1013.4 |
| 20260502213846 | 64 | 259 | 9.0 | 14.0 | 0.00 | 0.00 | 0.00 | 80 | 1013.6 |
| 20260502211733 | 64 | 229 | 9.0 | 13.0 | 0.00 | 0.00 | 0.00 | 80 | 1013.6 |
| 20260502210726 | 65 | 245 | 9.0 | 13.0 | 0.00 | 0.00 | 0.00 | 80 | 1013.6 |
| 20260502205652 | 65 | 351 | 8.0 | 12.0 | 0.00 | 0.00 | 0.00 | 80 | 1013.8 |
| 20260502204635 | 65 | 293 | 8.0 | 11.0 | 0.00 | 0.00 | 0.00 | 80 | 1014.0 |
| 20260502203617 | 65 | 205 | 7.0 | 11.0 | 0.00 | 0.00 | 0.00 | 81 | 1014.0 |
| 20260502202550 | 65 | 346 | 6.0 | 9.0 | 0.00 | 0.00 | 0.00 | 81 | 1014.0 |
| 20260502201548 | 64 | 234 | 5.0 | 8.0 | 0.00 | 0.00 | 0.00 | 82 | 1014.0 |
| 20260502200543 | 64 | 298 | 4.0 | 7.0 | 0.00 | 0.00 | 0.00 | 84 | 1014.0 |
| 20260502195539 | 63 | 287 | 4.0 | 9.0 | 0.00 | 0.00 | 0.00 | 84 | 1014.1 |
| 20260502194544 | 63 | 65 | 5.0 | 9.0 | 0.00 | 0.00 | 0.00 | 85 | 1014.2 |
| 20260502193610 | 63 | 242 | 5.0 | 9.0 | 0.00 | 0.00 | 0.00 | 85 | 1014.2 |
| 20260502192621 | 62 | 258 | 5.0 | 9.0 | 0.00 | 0.00 | 0.00 | 86 | 1014.4 |
| 20260502191620 | 62 | 258 | 4.0 | 8.0 | 0.00 | 0.00 | 0.00 | 85 | 1014.6 |
| 20260502190606 | 62 | 283 | 4.0 | 8.0 | 0.00 | 0.00 | 0.00 | 86 | 1014.5 |
| 20260502183308 | 62 | 263 | 3.0 | 6.0 | 0.00 | 0.00 | 0.00 | 87 | 1015.0 |
| 20260502182239 | 62 | 279 | 3.0 | 6.0 | 0.00 | 0.00 | 0.00 | 87 | 1015.0 |
| 20260502181206 | 61 | 352 | 3.0 | 6.0 | 0.00 | 0.00 | 0.00 | 87 | 1015.0 |
| 20260502180214 | 62 | 301 | 1.0 | 4.0 | 0.00 | 0.00 | 0.00 | 87 | 1014.9 |
| 20260502170138 | 60 | 300 | 0.0 | 0.0 | 0.00 | 0.00 | 0.00 | 90 | 1015.2 |
| 20260502161858 | 60 | 278 | 2.0 | 4.0 | 0.00 | 0.00 | 0.00 | 90 | 1015.3 |
| 20260502160919 | 60 | 279 | 1.0 | 3.0 | 0.00 | 0.00 | 0.00 | 90 | 1015.3 |
| 20260502151815 | 60 | 234 | 0.0 | 3.0 | 0.00 | 0.00 | 0.00 | 91 | 1015.2 |
| 20260502150828 | 60 | 288 | 0.0 | 0.0 | 0.00 | 0.00 | 0.00 | 91 | 1015.1 |
| 20260502130508 | 59 | 348 | 1.0 | 4.0 | 0.00 | 0.00 | 0.00 | 91 | 1014.4 |
| 20260502122202 | 59 | 253 | 4.0 | 7.0 | 0.00 | 0.00 | 0.00 | 91 | 1014.2 |
| 20260502121220 | 59 | 262 | 4.0 | 7.0 | 0.00 | 0.00 | 0.00 | 91 | 1014.2 |
| 20260502120233 | 59 | 298 | 3.0 | 6.0 | 0.00 | 0.00 | 0.00 | 91 | 1014.1 |
| 20260502115221 | 59 | 253 | 2.0 | 5.0 | 0.00 | 0.00 | 0.00 | 91 | 1014.1 |
| 20260502114239 | 59 | 259 | 2.0 | 5.0 | 0.00 | 0.00 | 0.00 | 91 | 1014.1 |
| 20260502113258 | 59 | 264 | 1.0 | 4.0 | 0.00 | 0.00 | 0.00 | 91 | 1014.0 |
| 20260502112311 | 59 | 152 | 1.0 | 3.0 | 0.00 | 0.00 | 0.00 | 91 | 1013.9 |
| 20260502111326 | 59 | 271 | 2.0 | 0.0 | 0.00 | 0.00 | 0.00 | 91 | 1013.9 |
| 20260502105225 | 59 | 285 | 2.0 | 4.0 | 0.00 | 0.00 | 0.00 | 91 | 1013.8 |
| 20260502103017 | 59 | 155 | 0.0 | 0.0 | 0.00 | 0.00 | 0.00 | 91 | 1013.7 |
| 20260502102031 | 59 | 262 | 0.0 | 2.0 | 0.00 | 0.00 | 0.00 | 91 | 1013.6 |
| 20260502101015 | 59 | 241 | 0.0 | 0.0 | 0.00 | 0.00 | 0.00 | 91 | 1013.7 |
| 20260502090845 | 59 | 153 | 1.0 | 4.0 | 0.00 | 0.00 | 0.00 | 91 | 1014.0 |
| 20260502070705 | 59 | 359 | 2.0 | 5.0 | 0.00 | 0.00 | 0.00 | 90 | 1014.7 |
| 20260502065654 | 59 | 266 | 0.0 | 3.0 | 0.00 | 0.00 | 0.00 | 90 | 1014.6 |
| 20260502064632 | 59 | 356 | 0.0 | 1.0 | 0.00 | 0.00 | 0.00 | 90 | 1014.6 |
| 20260502063651 | 59 | 120 | 0.0 | 6.0 | 0.00 | 0.00 | 0.00 | 90 | 1014.4 |
| 20260502062641 | 59 | 48 | 1.0 | 6.0 | 0.00 | 0.00 | 0.00 | 90 | 1014.6 |
| 20260502061622 | 59 | 154 | 1.0 | 5.0 | 0.00 | 0.00 | 0.00 | 90 | 1014.3 |
| 20260502060642 | 59 | 199 | 0.0 | 2.0 | 0.00 | 0.00 | 0.00 | 89 | 1014.4 |
| 20260502055647 | 59 | 236 | 2.0 | 6.0 | 0.00 | 0.00 | 0.00 | 89 | 1014.3 |
| 20260502054653 | 59 | 234 | 3.0 | 6.0 | 0.00 | 0.00 | 0.00 | 89 | 1014.3 |
| 20260502052518 | 59 | 340 | 3.0 | 6.0 | 0.00 | 0.00 | 0.00 | 89 | 1014.4 |
| 20260502051506 | 59 | 330 | 3.0 | 9.0 | 0.00 | 0.00 | 0.00 | 89 | 1014.4 |
| 20260502050505 | 59 | 258 | 5.0 | 9.0 | 0.00 | 0.00 | 0.00 | 89 | 1014.3 |
| 20260502044338 | 60 | 234 | 5.0 | 8.0 | 0.00 | 0.00 | 0.00 | 89 | 1014.3 |
| 20260502043316 | 60 | 204 | 6.0 | 9.0 | 0.00 | 0.00 | 0.00 | 89 | 1014.0 |
| 20260502042243 | 60 | 50 | 6.0 | 10.0 | 0.00 | 0.00 | 0.00 | 89 | 1014.1 |
| 20260502041307 | 60 | 235 | 7.0 | 11.0 | 0.00 | 0.00 | 0.00 | 90 | 1014.0 |
| 20260502040234 | 60 | 253 | 8.0 | 12.0 | 0.00 | 0.00 | 0.00 | 89 | 1013.9 |
| 20260502035235 | 60 | 273 | 8.0 | 13.0 | 0.00 | 0.00 | 0.00 | 89 | 1013.8 |
| 20260502034222 | 60 | 259 | 8.0 | 13.0 | 0.00 | 0.00 | 0.00 | 90 | 1013.5 |
| 20260502033246 | 60 | 250 | 8.0 | 13.0 | 0.00 | 0.00 | 0.00 | 90 | 1013.3 |